GW1422 Weather Reports


Display with metric or nautical units.
time (UTC)temp
F
wind
direction
speed
MPH
gust
MPH
rain 1hr
in
rain 24hr
in
rain mn
in
humidity
%
barometer
mb
20260507105204 46 344 3.0 10.0 0.05 0.38 0.35 99 1012.9
20260507104704 46 338 6.0 10.0 0.05 0.38 0.35 99 1012.9
20260507104204 46 0 1.0 9.0 0.07 0.38 0.35 99 1012.9
20260507103704 46 0 3.0 9.0 0.07 0.38 0.35 99 1012.9
20260507103204 46 23 3.0 10.0 0.07 0.38 0.35 99 1012.6
20260507102705 46 0 5.0 10.0 0.06 0.37 0.34 99 1012.5
20260507102204 46 341 5.0 9.0 0.06 0.37 0.34 99 1012.5
20260507101705 46 0 2.0 9.0 0.05 0.36 0.33 99 1012.5
20260507100704 46 15 2.0 6.0 0.04 0.35 0.32 99 1012.5
20260507100204 47 18 1.0 6.0 0.03 0.34 0.31 99 1012.2
20260507095704 46 349 3.0 9.0 0.03 0.34 0.31 99 1012.4
20260507095205 46 0 3.0 9.0 0.03 0.33 0.30 99 1012.3
20260507094704 46 0 6.0 9.0 0.03 0.33 0.30 99 1012.2
20260507094204 46 0 1.0 9.0 0.01 0.31 0.28 99 1012.1
20260507093704 46 0 1.0 14.0 0.02 0.31 0.28 99 1011.9
20260507093208 46 0 1.0 6.0 0.02 0.31 0.28 99 1011.9
20260507092708 46 23 0.0 3.0 0.03 0.31 0.28 99 1011.9
20260507092207 46 0 0.0 3.0 0.04 0.31 0.28 99 1011.9
20260507091708 46 0 0.0 3.0 0.06 0.31 0.28 99 1011.7
20260507091207 46 9 2.0 9.0 0.06 0.31 0.28 99 1011.6
20260507090708 46 23 0.0 9.0 0.06 0.31 0.28 99 1011.8
20260507090208 46 338 3.0 9.0 0.06 0.31 0.28 99 1011.9
20260507085208 45 338 1.0 10.0 0.06 0.30 0.27 99 1011.2
20260507084708 45 338 6.0 10.0 0.07 0.30 0.27 99 1011.2
20260507084208 45 0 1.0 6.0 0.08 0.30 0.27 99 1011.2
20260507083708 45 0 1.0 6.0 0.08 0.29 0.26 99 1011.2
20260507083207 45 3 2.0 6.0 0.09 0.29 0.26 99 1011.2
20260507082208 45 5 3.0 9.0 0.09 0.27 0.24 99 1011.1
20260507081708 45 347 1.0 6.0 0.07 0.25 0.22 99 1011.0
20260507081207 45 0 1.0 6.0 0.08 0.25 0.22 99 1010.9
20260507080208 45 0 2.0 9.0 0.10 0.25 0.22 99 1010.8
20260507075707 45 0 0.0 0.0 0.10 0.24 0.21 99 1010.8
20260507075208 45 0 0.0 6.0 0.12 0.24 0.21 99 1010.8
20260507074707 45 0 2.0 9.0 0.11 0.23 0.20 99 1010.8
20260507074208 45 0 0.0 9.0 0.11 0.22 0.19 99 1010.8
20260507073707 45 338 3.0 6.0 0.11 0.21 0.18 99 1010.7
20260507073208 45 0 1.0 6.0 0.11 0.20 0.17 99 1010.6
20260507072707 45 0 1.0 10.0 0.10 0.18 0.15 99 1010.8
20260507072208 45 315 3.0 10.0 0.10 0.18 0.15 99 1010.5
20260507071707 45 0 3.0 6.0 0.11 0.18 0.15 99 1010.5
20260507071207 45 0 1.0 6.0 0.12 0.17 0.14 99 1010.5
20260507070207 45 0 5.0 9.0 0.10 0.15 0.12 99 1010.5
20260507065207 45 0 2.0 9.0 0.07 0.12 0.09 99 1010.4
20260507064707 45 23 1.0 6.0 0.07 0.12 0.09 99 1010.2
20260507064207 45 0 1.0 9.0 0.06 0.11 0.08 99 1010.2
20260507063707 45 344 2.0 9.0 0.05 0.10 0.07 99 1010.0
20260507063207 45 343 4.0 9.0 0.05 0.09 0.06 99 1010.2
20260507062707 45 0 1.0 6.0 0.04 0.08 0.05 99 1009.8
20260507062208 45 338 3.0 10.0 0.04 0.09 0.05 99 1009.5
20260507061707 45 0 2.0 9.0 0.03 0.08 0.04 99 1009.8
20260507060707 45 338 3.0 10.0 0.01 0.08 0.02 99 1009.5
20260507060206 45 45 5.0 10.0 0.01 0.10 0.02 99 1009.5
20260507055707 45 327 6.0 10.0 0.01 0.11 0.02 99 1009.5
20260507055207 45 0 1.0 9.0 0.01 0.12 0.02 99 1009.3
20260507054207 45 9 3.0 14.0 0.01 0.12 0.02 99 1009.2
20260507053207 45 23 1.0 3.0 0.00 0.11 0.01 99 1009.1
20260507052207 45 23 1.0 3.0 0.00 0.12 0.01 99 1009.1
20260507051707 45 0 1.0 3.0 0.00 0.12 0.01 99 1009.1
20260507051207 45 0 1.0 3.0 0.00 0.12 0.01 99 1009.1
20260507050707 45 0 1.0 3.0 0.00 0.14 0.01 99 1009.1
20260507050207 45 0 1.0 3.0 0.00 0.14 0.01 99 1009.1
20260507045707 45 0 1.0 3.0 0.00 0.15 0.01 99 1009.1
20260507045207 45 0 1.0 10.0 0.00 0.15 0.01 99 1008.8
20260507044707 46 338 3.0 10.0 0.00 0.16 0.01 99 1008.8
20260507044206 46 338 3.0 10.0 0.00 0.16 0.01 99 1008.5
20260507043707 46 12 3.0 10.0 0.00 0.17 0.01 99 1008.8
20260507043207 46 338 4.0 22.0 0.00 0.17 0.01 99 1008.7
20260507042707 46 0 2.0 6.0 0.00 0.17 0.01 99 1008.5
20260507041207 46 11 4.0 9.0 0.00 0.18 0.01 99 1008.5
20260507040707 47 24 3.0 9.0 0.01 0.18 0.01 99 1008.5
20260507040206 47 338 3.0 9.0 0.01 0.20 0.01 99 1008.5
20260507035707 47 338 3.0 14.0 0.01 0.20 0.01 99 1008.5
20260507035206 48 1 5.0 14.0 0.01 0.20 0.01 99 1008.5
20260507034707 48 23 3.0 6.0 0.01 0.21 0.01 99 1008.5
20260507034206 48 23 3.0 10.0 0.01 0.22 0.01 99 1008.3
20260507033707 48 23 6.0 10.0 0.01 0.23 0.01 99 1008.1
20260507033207 48 339 5.0 10.0 0.01 0.24 0.01 99 1008.1
20260507032707 49 0 3.0 10.0 0.01 0.24 0.01 99 1008.1
20260507032207 49 18 2.0 10.0 0.01 0.27 0.01 98 1008.1
20260507031707 49 23 2.0 10.0 0.01 0.27 0.01 98 1008.1
20260507031206 49 0 1.0 9.0 0.01 0.27 0.01 98 1008.1
20260507030706 49 0 3.0 9.0 0.00 0.26 0.00 98 1008.1
20260507030207 49 23 1.0 3.0 0.00 0.26 0.00 98 1008.3
20260507025707 49 23 1.0 6.0 0.00 0.26 0.00 97 1008.1
20260507025207 49 0 1.0 6.0 0.00 0.27 0.00 97 1008.5
20260507024706 49 2 3.0 6.0 0.00 0.27 0.00 97 1008.1
20260507024207 49 9 1.0 3.0 0.00 0.27 0.00 97 1008.1
20260507023706 50 0 1.0 6.0 0.00 0.28 0.00 96 1008.1
20260507023208 50 0 1.0 6.0 0.00 0.28 0.00 96 1008.5
20260507022707 49 23 1.0 9.0 0.00 0.28 0.00 95 1008.1
20260507022206 50 11 3.0 9.0 0.00 0.28 0.00 95 1008.3
20260507021207 50 23 0.0 3.0 0.00 0.29 0.00 96 1008.1
20260507020706 50 23 0.0 6.0 0.00 0.29 0.00 96 1008.1
20260507020206 50 293 0.0 3.0 0.00 0.29 0.00 96 1008.1
20260507015706 50 333 0.0 6.0 0.00 0.29 0.00 96 1007.9
20260507015207 50 293 0.0 6.0 0.00 0.30 0.00 95 1008.1
20260507014707 50 315 3.0 6.0 0.00 0.30 0.00 95 1007.9
20260507014206 50 354 1.0 6.0 0.00 0.30 0.00 95 1007.8
20260507013207 50 338 1.0 10.0 0.00 0.30 0.00 94 1007.8
20260507012706 50 281 4.0 10.0 0.00 0.30 0.00 94 1008.0
20260507012206 50 293 1.0 14.0 0.00 0.32 0.00 94 1007.8
20260507011707 50 315 3.0 9.0 0.00 0.33 0.00 94 1007.8
20260507011207 50 293 3.0 14.0 0.00 0.33 0.00 94 1007.8
20260507010710 50 323 3.0 10.0 0.00 0.34 0.00 93 1007.8
20260507005706 50 338 1.0 16.0 0.00 0.36 0.00 93 1007.8
20260507005206 50 315 6.0 10.0 0.00 0.37 0.00 93 1008.1
20260507003706 50 313 3.0 9.0 0.00 0.42 0.00 94 1007.5
20260507003207 50 90 6.0 9.0 0.00 0.43 0.00 94 1007.5
20260507002707 50 338 0.0 6.0 0.00 0.43 0.00 94 1007.8
20260507001207 50 68 6.0 10.0 0.00 0.47 0.00 94 1007.8
20260507000706 50 299 7.0 14.0 0.00 0.48 0.00 94 1007.5
20260507000206 50 284 5.0 10.0 0.00 0.49 0.00 94 1007.5
20260506235706 50 23 3.0 9.0 0.00 0.50 0.00 94 1007.8
20260506235206 50 0 3.0 10.0 0.00 0.52 0.00 94 1007.5
20260506234707 50 351 2.0 9.0 0.00 0.53 0.00 94 1007.8
20260506234206 50 327 2.0 9.0 0.00 0.54 0.00 95 1007.8
20260506233706 50 293 2.0 6.0 0.00 0.55 0.00 95 1007.8
20260506233206 51 338 1.0 6.0 0.00 0.56 0.00 95 1007.5
20260506232707 51 338 0.0 6.0 0.00 0.56 0.00 95 1007.6
20260506232206 51 308 2.0 9.0 0.00 0.58 0.00 95 1007.5
20260506231706 51 315 4.0 14.0 0.00 0.59 0.00 95 1007.5
20260506231206 51 293 1.0 6.0 0.00 0.60 0.00 95 1007.5
20260506230706 51 293 3.0 10.0 0.00 0.61 0.00 95 1007.5
20260506230206 51 338 4.0 10.0 0.00 0.62 0.00 95 1007.5
20260506225706 51 315 1.0 9.0 0.00 0.65 0.00 95 1007.5
20260506225206 51 315 4.0 16.0 0.00 0.67 0.00 95 1007.1
20260506224706 51 243 5.0 16.0 0.00 0.69 0.00 95 1007.2
20260506224206 51 272 4.0 14.0 0.00 0.71 0.00 95 1007.3
20260506223706 51 296 1.0 9.0 0.00 0.74 0.00 95 1007.1
20260506223206 51 315 3.0 10.0 0.00 0.76 0.00 95 1007.1
20260506222706 51 325 1.0 9.0 0.00 0.79 0.00 96 1007.1
20260506222206 51 356 3.0 9.0 0.00 0.79 0.00 96 1007.1
20260506221706 52 45 1.0 9.0 0.00 0.79 0.00 95 1007.4
20260506221206 52 248 1.0 9.0 0.00 0.80 0.00 96 1007.1
20260506220706 52 315 3.0 9.0 0.00 0.80 0.00 96 1007.1
20260506220206 52 11 3.0 10.0 0.00 0.80 0.00 96 1006.9
20260506215706 52 294 3.0 9.0 0.00 0.81 0.80 96 1007.1
20260506215206 52 308 3.0 16.0 0.00 0.81 0.80 96 1007.0
20260506214206 51 293 2.0 9.0 0.00 0.82 0.80 96 1007.1
20260506213706 52 337 1.0 9.0 0.00 0.82 0.80 96 1007.1
20260506213206 52 7 2.0 9.0 0.00 0.82 0.80 97 1007.2
20260506212706 52 317 3.0 10.0 0.00 0.82 0.80 97 1007.1
20260506212206 52 315 3.0 10.0 0.00 0.82 0.80 97 1007.4
20260506211706 52 1 2.0 9.0 0.00 0.82 0.80 98 1007.1
20260506211206 52 299 1.0 6.0 0.00 0.82 0.80 98 1007.1
20260506210706 52 348 1.0 6.0 0.00 0.82 0.80 97 1007.1
20260506210206 52 325 3.0 9.0 0.00 0.82 0.80 97 1007.1
20260506205707 52 358 3.0 9.0 0.00 0.82 0.80 98 1007.1
20260506205206 52 293 1.0 9.0 0.00 0.82 0.80 98 1007.1
20260506204706 52 293 6.0 9.0 0.00 0.82 0.80 98 1007.1
20260506204205 52 296 2.0 10.0 0.00 0.82 0.80 98 1007.1
20260506203705 52 335 1.0 3.0 0.00 0.82 0.80 98 1007.4
20260506203206 53 0 2.0 9.0 0.00 0.82 0.80 98 1007.1
20260506202206 52 320 3.0 9.0 0.00 0.82 0.80 98 1007.4
20260506201706 53 323 2.0 9.0 0.00 0.82 0.80 98 1007.2
20260506201206 53 320 2.0 9.0 0.00 0.82 0.80 98 1007.1
20260506200706 53 325 1.0 6.0 0.00 0.82 0.80 98 1007.1
20260506200206 53 316 1.0 9.0 0.00 0.82 0.80 98 1007.1
20260506195706 53 338 1.0 9.0 0.00 0.82 0.80 98 1006.8
20260506195205 53 15 2.0 9.0 0.00 0.82 0.80 98 1007.1
20260506194706 53 355 1.0 9.0 0.00 0.82 0.80 98 1007.0
20260506193706 53 328 3.0 9.0 0.00 0.82 0.80 98 1006.9
20260506193206 53 299 2.0 9.0 0.00 0.82 0.80 98 1006.8
20260506192706 53 270 3.0 9.0 0.00 0.82 0.80 98 1006.8
20260506191705 53 293 0.0 6.0 0.01 0.82 0.80 98 1006.8
20260506191206 53 319 2.0 9.0 0.01 0.82 0.80 98 1006.8
20260506190706 53 279 3.0 10.0 0.02 0.82 0.80 98 1006.7
20260506190205 53 342 2.0 10.0 0.02 0.82 0.80 98 1006.7
20260506185705 53 293 4.0 9.0 0.03 0.82 0.80 98 1006.4
20260506185206 53 315 3.0 10.0 0.03 0.82 0.80 98 1006.4
20260506184705 53 293 1.0 10.0 0.03 0.82 0.80 98 1006.4
20260506184206 53 311 3.0 9.0 0.03 0.82 0.80 98 1006.4
20260506183205 54 324 3.0 10.0 0.03 0.82 0.80 98 1006.4
20260506182705 54 317 1.0 6.0 0.03 0.82 0.80 97 1006.4
20260506182206 54 332 0.0 6.0 0.03 0.82 0.80 97 1006.2
20260506181705 54 316 2.0 6.0 0.02 0.81 0.79 97 1006.4
20260506181205 55 315 1.0 10.0 0.02 0.81 0.79 97 1006.4
20260506180705 55 270 4.0 9.0 0.01 0.80 0.78 96 1006.4
20260506180205 55 335 3.0 6.0 0.01 0.80 0.78 95 1006.3
20260506175206 55 284 2.0 6.0 0.00 0.79 0.77 94 1006.4
20260506174705 56 315 1.0 6.0 0.00 0.79 0.77 93 1006.4
20260506174205 56 349 3.0 10.0 0.00 0.79 0.77 93 1006.4
20260506173705 56 270 5.0 9.0 0.00 0.79 0.77 93 1006.4
20260506173206 56 20 2.0 9.0 0.00 0.79 0.77 92 1006.4
20260506172705 56 356 1.0 6.0 0.00 0.79 0.77 91 1006.4
20260506171205 57 0 0.0 6.0 0.00 0.79 0.77 91 1006.4
20260506170205 57 302 2.0 9.0 0.00 0.79 0.77 90 1006.1
20260506165705 57 331 3.0 14.0 0.00 0.79 0.77 90 1006.3
20260506164705 58 311 1.0 6.0 0.00 0.79 0.77 89 1006.4
20260506164206 58 270 2.0 9.0 0.00 0.79 0.77 89 1006.4
20260506163705 58 315 3.0 10.0 0.00 0.79 0.77 89 1006.3
20260506162705 58 333 2.0 9.0 0.00 0.79 0.77 90 1006.2
20260506162205 58 283 3.0 9.0 0.00 0.79 0.77 90 1006.4
20260506161705 58 5 2.0 10.0 0.00 0.79 0.77 90 1006.2
20260506161204 58 0 4.0 10.0 0.00 0.79 0.77 89 1006.4
20260506160705 58 340 6.0 10.0 0.00 0.79 0.77 89 1006.4
20260506160205 59 270 1.0 14.0 0.00 0.79 0.77 89 1006.4
20260506154705 59 279 6.0 16.0 0.00 0.79 0.77 87 1006.7
20260506153705 59 293 1.0 16.0 0.00 0.79 0.77 87 1006.4
20260506153205 59 226 5.0 14.0 0.00 0.79 0.77 87 1006.4
20260506152705 59 331 7.0 10.0 0.00 0.79 0.77 86 1006.7
20260506152205 60 287 3.0 14.0 0.00 0.79 0.77 86 1006.4
20260506151705 60 9 9.0 16.0 0.00 0.79 0.77 85 1006.7
20260506151205 60 19 3.0 16.0 0.00 0.79 0.77 85 1006.8
20260506150705 61 343 3.0 16.0 0.00 0.79 0.77 85 1006.4
20260506150205 60 4 6.0 10.0 0.00 0.79 0.77 85 1006.6
20260506145705 61 299 5.0 16.0 0.00 0.79 0.77 84 1006.8
20260506145204 61 298 5.0 14.0 0.00 0.79 0.77 84 1006.5
20260506144705 61 307 3.0 9.0 0.00 0.79 0.77 84 1006.4
20260506144205 61 354 4.0 14.0 0.00 0.79 0.77 84 1006.6
20260506143705 62 344 5.0 10.0 0.00 0.79 0.77 83 1006.4
20260506143205 62 315 6.0 10.0 0.00 0.79 0.77 82 1007.1
20260506142705 62 272 4.0 10.0 0.00 0.79 0.77 83 1006.7
20260506142205 61 315 6.0 14.0 0.00 0.79 0.77 84 1006.8
20260506141204 63 314 5.0 14.0 0.00 0.79 0.77 83 1006.8
20260506135705 61 305 2.0 9.0 0.00 0.79 0.77 83 1006.8
20260506135206 61 336 3.0 10.0 0.00 0.79 0.77 84 1006.4
20260506134705 62 336 3.0 10.0 0.00 0.79 0.77 83 1006.8
20260506134205 62 263 2.0 14.0 0.00 0.79 0.77 83 1006.6
20260506132704 61 315 5.0 10.0 0.00 0.79 0.77 87 1006.4
20260506132205 60 309 5.0 10.0 0.00 0.79 0.77 89 1006.4
20260506131705 60 323 3.0 9.0 0.00 0.79 0.77 89 1006.4
20260506131205 60 272 2.0 10.0 0.00 0.79 0.77 89 1006.4
20260506130705 60 300 4.0 10.0 0.00 0.79 0.77 88 1006.5
20260506125204 63 23 1.0 9.0 0.00 0.79 0.77 84 1006.5
20260506123705 60 347 5.0 10.0 0.00 0.79 0.77 89 1006.4
20260506122705 60 341 2.0 6.0 0.00 0.79 0.77 91 1006.4
20260506122204 60 310 5.0 9.0 0.00 0.79 0.77 90 1006.4
20260506121704 60 17 4.0 9.0 0.00 0.79 0.77 91 1006.1
20260506120704 60 5 3.0 9.0 0.00 0.79 0.77 90 1006.1
20260506120205 61 344 1.0 6.0 0.00 0.79 0.77 89 1006.1
20260506115704 61 335 1.0 6.0 0.00 0.79 0.77 91 1005.8
20260506114705 60 23 3.0 9.0 0.00 0.79 0.77 95 1005.8
20260506114204 59 23 3.0 6.0 0.00 0.79 0.77 96 1005.8
20260506113705 59 23 3.0 10.0 0.00 0.79 0.77 96 1005.8
20260506113205 59 23 3.0 6.0 0.00 0.79 0.77 96 1005.7
20260506112704 59 40 5.0 6.0 0.00 0.79 0.77 95 1005.8
20260506112205 59 23 0.0 3.0 0.00 0.79 0.77 94 1005.9
20260506111706 58 23 1.0 6.0 0.00 0.79 0.77 93 1005.8
20260506111205 59 23 0.0 6.0 0.00 0.79 0.77 94 1005.8
20260506110704 58 42 3.0 6.0 0.00 0.79 0.77 92 1005.8
20260506110205 59 23 1.0 6.0 0.00 0.79 0.77 90 1005.9